STARLINK-2651 (48654 NORAD) Tracking and Keplerian Element Data

This shows tracking and keplerian element data for the satellite.

Feedback or suggestion? Click here.




ElementValue
Catalog48654
NameSTARLINK-2651
Epoch Orbit1049
Epoch Day214.70588543
Epoch Year2021
RAAN103.3471
Inclination53.0566
Eccentricity0.0002005
Argument of Perigee87.1473
Mean Anonmoly272.9745
Mean Motion15.06394343
Decay Rate4.42E-06
L11 48654U 21044S 21214.70588543 .00000442 00000-0 48594-4 0 9992
L22 48654 53.0566 103.3471 0002005 87.1473 272.9745 15.06394343 10498

Live tracking and technical data element details for STARLINK-2651 (NORAD 48654). STARLINK-2651 can be tracked NOW for your location showing map with azimuth and elevation plus other details from your city location.

Track the satellite on the map from your city or location and see movement details for azimuth, elevation, latitude, longitude, range, height, and movement on the map or in text.







IsCatalogInMostPopularTable: catalog: 48654, numindb: 16
Update: records affected: 1



GetName: 48654 STARLINK-2651

Hit Count: updated at: Tue, 03 Aug 2021 23:49:24 GMT